Tracking 18987 objects as of 25-Feb-2018
HD Live streaming from Space Station
objects crossing your sky now

SICRAL 1

Track SICRAL 1 now!
SICRAL 1 is classified as:


NORAD ID: 26694
Int'l Code: 2001-005A
Perigee: 35,773.5 km
Apogee: 35,815.0 km
Inclination: 7.7 °
Period: 1,436.1 minutes
Semi major axis: 42165 km
RCS: 26.3777 m2 (large)
Launch date: February 7, 2001
Source: Italy (IT)
Launch site: FRENCH GUIANA (FRGUI)
aabbcc
Your satellite tracking list
Your tracking list is empty




NASA's NSSDC Master Catalog

Two Line Element Set (TLE):
1 26694U 01005A   18054.66400817 0.00000000  00000-0  00000-0 0    06
2 26694   7.6920  48.8129 0004929 266.3633  93.5871  1.00270000    01
Source of the keplerian elements: McCants